Location: Laupheim
(48.2265°N, 9.8829°E)
Time: 22:00:38
(UTC+01:00)

ISS - Pass Details

Date: 11 January 2018
Orbit: 401 x 407 km, 51.6° (Epoch: 17 January)

Event Time Altitude Azimuth Distance (km) Brightness Sun altitude
Exits shadow 05:42:11 39° 79° (E) 620 -2.5 -23.6°
Drops below altitude 10° 05:44:29 10° 98° (E) 1,464 0.1 -23.2°
Sets 05:46:35 0° 102° (ESE) 2,324 1.5 -22.9°
